Weather History for KSLC - March, 2013

Change the Weather History Date:

Sunday, March 17, 2013

  Actual Average Record
Temperature  
Mean Temperature 41 °F 44 °F  
Max Temperature 52 °F 54 °F 74 °F (2007)
Min Temperature 30 °F 34 °F 17 °F (1917)
Degree Days  
Heating Degree Days 24 21  
Month to date heating degree days 350 393  
Since 1 July heating degree days 4582 4649  
Cooling Degree Days 0 0  
Month to date cooling degree days 0 0  
Year to date cooling degree days 0 0  
Moisture  
Dew Point 26 °F    
Average Humidity 50    
Maximum Humidity 66    
Minimum Humidity 33    
Precipitation  
Precipitation T in 0.06 in 0.76 in (2002)
Month to date precipitation 0.36 0.91  
Year to date precipitation 2.56 3.41  
Snow  
Snow 0.00 in 0.20 in 8.40 in (2002)
Month to date snowfall 0.0 3.8  
Since 1 July snowfall 67.1 49.2  
Snow Depth 0.00 in    
Sea Level Pressure  
Sea Level Pressure 29.87 in    
Wind  
Wind Speed 10 mph (NNW)    
Max Wind Speed 25 mph    
Max Gust Speed 32 mph    
Visibility 10 miles    
Events Rain    
T = Trace of Precipitation, MM = Missing Value Source: NWS Daily Summary

Daily Weather History Graph

Daily Weather History Graph

Search for Another Location

Airport or City:

Trip Planner

Search our weather history database for the weather conditions in past years. The results will help you decide how hot, cold, wet, or windy it might be!

Date:

Astronomy

Mar. 17, 2013 Rise Set
Actual Time 7:35 AM MDT 7:37 PM MDT
Civil Twilight 7:08 AM MDT 8:04 PM MDT
Nautical Twilight 6:36 AM MDT 8:36 PM MDT
Astronomical Twilight 6:04 AM MDT 9:08 PM MDT
Moon 10:49 AM MDT (3/17) 12:50 AM MDT (3/17)
Length of Visible Light 12h 56m
Length of Day
12h 01m
Waxing Crescent, 32% of the Moon is Illuminated
Mar 17
Waxing Crescent
Mar 19
First Quarter
Mar 27
Full
Apr 2
Last Quarter
Apr 10
New

Hourly Weather History & Observations

Time (MDT) Temp. Windchill Dew Point Humidity Pressure Visibility Wind Dir Wind Speed Gust Speed Precip Events Conditions
12:53 AM 48.9 °F - 24.1 °F 38% 29.68 in 10.0 mi SE 11.5 mph - N/A   Overcast
1:28 AM 50.0 °F - 33.8 °F 54% 29.81 in 10.0 mi NNW 20.7 mph 32.2 mph 0.00 in Rain Light Rain
1:53 AM 46.9 °F - 36.0 °F 66% 29.74 in 10.0 mi North 15.0 mph - 0.00 in   Overcast
2:53 AM 48.9 °F - 37.0 °F 64% 29.75 in 10.0 mi Calm Calm - N/A   Overcast
3:53 AM 48.9 °F - 34.0 °F 56% 29.75 in 10.0 mi WNW 6.9 mph - N/A   Mostly Cloudy
4:53 AM 46.0 °F 41.0 °F 34.0 °F 63% 29.76 in 10.0 mi NNW 10.4 mph - N/A   Scattered Clouds
5:53 AM 45.0 °F 39.7 °F 33.1 °F 63% 29.78 in 10.0 mi NNW 10.4 mph - N/A   Scattered Clouds
6:53 AM 45.0 °F 43.5 °F 34.0 °F 65% 29.79 in 10.0 mi West 3.5 mph - N/A   Mostly Cloudy
7:53 AM 46.0 °F 41.4 °F 30.9 °F 56% 29.79 in 10.0 mi WNW 9.2 mph - N/A   Mostly Cloudy
8:53 AM 45.0 °F 38.5 °F 28.9 °F 53% 29.82 in 10.0 mi NW 13.8 mph 19.6 mph N/A   Mostly Cloudy
9:53 AM 45.0 °F 39.3 °F 30.0 °F 56% 29.85 in 10.0 mi NNW 11.5 mph - N/A   Mostly Cloudy
10:53 AM 46.0 °F 39.9 °F 28.0 °F 50% 29.87 in 10.0 mi NW 13.8 mph 19.6 mph N/A   Mostly Cloudy
11:53 AM 46.0 °F 39.0 °F 27.0 °F 47% 29.88 in 10.0 mi NNW 17.3 mph 21.9 mph N/A   Mostly Cloudy
12:53 PM 45.0 °F 37.9 °F 26.1 °F 48% 29.90 in 10.0 mi NNW 16.1 mph - N/A   Mostly Cloudy
1:53 PM 43.0 °F 34.8 °F 27.0 °F 53% 29.93 in 10.0 mi NNW 18.4 mph 26.5 mph N/A   Mostly Cloudy
2:53 PM 43.0 °F 36.0 °F 25.0 °F 49% 29.93 in 10.0 mi North 13.8 mph 21.9 mph N/A   Mostly Cloudy
3:53 PM 44.1 °F 38.1 °F 21.9 °F 42% 29.93 in 10.0 mi NNW 11.5 mph - N/A   Mostly Cloudy
4:53 PM 45.0 °F 37.6 °F 21.9 °F 40% 29.93 in 10.0 mi NNW 17.3 mph 21.9 mph N/A   Mostly Cloudy
5:53 PM 45.0 °F 37.4 °F 19.9 °F 37% 29.94 in 10.0 mi NNW 18.4 mph - N/A   Mostly Cloudy
6:53 PM 44.1 °F 38.1 °F 17.1 °F 34% 29.95 in 10.0 mi NW 11.5 mph - N/A   Mostly Cloudy
7:53 PM 41.0 °F 36.4 °F 19.9 °F 43% 29.96 in 10.0 mi North 6.9 mph - N/A   Mostly Cloudy
8:53 PM 39.0 °F 36.8 °F 18.0 °F 43% 29.97 in 10.0 mi North 3.5 mph - N/A   Partly Cloudy
9:53 PM 37.0 °F 33.3 °F 17.1 °F 44% 29.98 in 10.0 mi East 4.6 mph - N/A   Partly Cloudy
10:53 PM 36.0 °F - 17.1 °F 46% 29.99 in 10.0 mi Calm Calm - N/A   Scattered Clouds
11:53 PM 32.0 °F 26.4 °F 21.0 °F 64% 30.01 in 10.0 mi SW 5.8 mph - N/A   Scattered Clouds